Skip Page Navigation
NASA JPL Caltech
NASA Logo - Jet Propulsion Laboratory + View the NASA Portal
+ Center for Near-Earth Object Studies
JPL Home Earth Solar System Stars & Galaxies Technology
JPL Solar System Dynamics
BODIES ORBITS EPHEMERIDES TOOLS PHYSICAL DATA DISCOVERY FAQ SITE MAP
JPL Small-Body Database Browser
Search: [ help ]  
123303 (2000 VT)
Classification: Main-belt Asteroid          SPK-ID: 2123303
Ephemeris | Orbit Diagram | Orbital Elements | Mission Design | Physical Parameters | Discovery Circumstances ]

[ show orbit diagram ]
Orbital Elements at Epoch 2459000.5 (2020-May-31.0) TDB
Reference: JPL 16 (heliocentric ecliptic J2000)
 Element Value Uncertainty (1-sigma)   Units 
e .03963612298504943 4.7851e-08  
a 2.813866125424744 2.2074e-08 au
q 2.702335381613945 1.403e-07 au
i 3.447856114426624 4.9398e-06 deg
node 62.92968186562105 7.9714e-05 deg
peri 95.75735416307556 0.00010137 deg
M 305.4163153863752 6.2776e-05 deg
tp 2459261.905019064951
(2021-Feb-16.40501906)
0.00030102 TDB
period 1724.0647554213
4.72
2.0288e-05
5.555e-08
d
yr
n .2088088622355886 2.4571e-09 deg/d
Q 2.925396869235544 2.2949e-08 au
  Orbit Determination Parameters
   # obs. used (total)      331  
   data-arc span      9788 days (26.80 yr)  
   first obs. used      1993-04-14  
   last obs. used      2020-01-31  
   planetary ephem.      DE431  
   SB-pert. ephem.      SB431-N16  
   condition code      0  
   norm. resid. RMS      .5813  
   source      ORB  
   producer      Otto Matic  
   solution date      2020-Feb-24 06:37:17  

Additional Information
 Earth MOID = 1.71334 au 
 Jupiter MOID = 2.04626 au 
 T_jup = 3.316 
[ show covariance matrix ]

Ephemeris | Orbit Diagram | Orbital Elements | Mission Design | Physical Parameters | Discovery Circumstances ]

Physical Parameter Table
Parameter Symbol Value Units Sigma Reference Notes
absolute magnitude H 16.1   n/a MPO453705  

123303 (2000 VT)          Discovered 2000-Nov-01 by Spacewatch at Kitt Peak
Reference: 20060314/Numbers.arcLast Updated: 2006-03-23

Alternate Designations
 2000 VT = 1996 XX13 
Ephemeris | Orbit Diagram | Orbital Elements | Mission Design | Physical Parameters | Discovery Circumstances ]
ABOUT SSD CREDITS/AWARDS PRIVACY/COPYRIGHT GLOSSARY LINKS
FirstGov 2020-Oct-27 11:59 UT
(server date/time)  
NASA Home Page
Site Manager:   Ryan S. Park
Webmaster  Alan B. Chamberlin